Stations météo

réclame
Mon MeteoGroup
Brüssel, Belgique (6451): Température de l'air & dewpoint: 15.07.2019 19:00:00 - 21.07.2019 19:00:00 (CEST)Brüssel, Belgique (6451): Vitesse du vent & gusts: 15.07.2019 19:00:00 - 21.07.2019 19:00:00 (CEST)Brüssel, Belgique (6451): Direction du vent: 15.07.2019 19:00:00 - 21.07.2019 19:00:00 (CEST)Brüssel, Belgique (6451): reduced air pressure: 15.07.2019 19:00:00 - 21.07.2019 19:00:00 (CEST)Brüssel, Belgique (6451): visibility: 15.07.2019 19:00:00 - 21.07.2019 19:00:00 (CEST)
Date & Time tt [°C] td [°C] ff [km/h] ff [knt] fx [km/h] fx [knt] dd ppp [hPa] vv [km]
21.07.2019 19:00:00 24,2 11,3 8 4 22 12 NW 1022,4 10
21.07.2019 18:00:00 23,6 10,9 11 6 22 12 W 1022,6 10
21.07.2019 17:00:00 24,1 10,9 15 8 - - WNW 1022,6 10
21.07.2019 16:00:00 24,1 10,6 13 7 25 14 W 1022,6 10
21.07.2019 15:00:00 22,8 11,2 9 5 29 16 WNW 1022,5 10
21.07.2019 14:00:00 22,7 11,3 15 8 - - W 1022,5 10
21.07.2019 13:00:00 21,3 12,2 13 7 25 14 WSW 1022,3 10
21.07.2019 12:00:00 21,0 13,4 13 7 22 12 W 1021,8 10
21.07.2019 11:00:00 20,1 14,7 11 6 - - WSW 1021,6 10
21.07.2019 10:00:00 19,3 14,9 9 5 18 10 WSW 1020,9 10
21.07.2019 09:00:00 17,4 13,9 11 6 22 12 W 1020,2 10
21.07.2019 08:00:00 16,3 13,9 11 6 - - WSW 1019,7 10
21.07.2019 07:00:00 15,3 13,4 9 5 22 12 WSW 1019,2 10
21.07.2019 06:00:00 14,9 13,3 13 7 25 14 WSW 1018,4 10
21.07.2019 05:00:00 15,3 13,3 15 8 - - WSW 1017,6 10
21.07.2019 04:00:00 15,8 13,2 15 8 32 18 WSW 1017,1 10
21.07.2019 03:00:00 16,7 12,9 18 10 29 16 WSW 1016,8 10
21.07.2019 02:00:00 17,4 13,1 18 10 - - WSW 1016,3 10
21.07.2019 01:00:00 18,0 13,1 16 9 29 16 WSW 1016,1 10
21.07.2019 00:00:00 18,5 13,4 15 8 25 14 WSW 1015,5 10
20.07.2019 23:00:00 19,2 13,4 15 8 - - W 1015,1 10
20.07.2019 22:00:00 20,5 12,9 22 12 40 21 W 1014,3 10
20.07.2019 21:00:00 21,5 12,8 22 12 47 25 W 1013,2 10
20.07.2019 20:00:00 23,1 12,1 31 17 - - W 1012,5 10
20.07.2019 19:00:00 23,6 17,4 15 8 29 16 SW 1011,8 10
20.07.2019 18:00:00 23,2 18,0 15 8 32 18 SW 1011,5 10
20.07.2019 17:00:00 23,2 18,0 13 7 - - SSW 1011,2 10
20.07.2019 16:00:00 21,5 18,4 8 4 72 39 SSW 1011,2 10
20.07.2019 15:00:00 23,9 15,1 11 6 29 16 SSW 1010,2 4,8
20.07.2019 14:00:00 26,7 14,1 18 10 - - SW 1010,2 10
20.07.2019 13:00:00 24,8 14,5 13 7 29 16 S 1010,1 10
20.07.2019 12:00:00 22,8 14,7 8 4 18 10 S 1010,4 10
20.07.2019 11:00:00 20,8 15,0 4 2 - - - 1010,4 10
20.07.2019 10:00:00 20,1 14,4 5 3 36 19 NNW 1010,7 10
20.07.2019 09:00:00 20,7 13,5 13 7 36 19 W 1010,6 10
20.07.2019 08:00:00 19,7 14,0 18 10 - - S 1009,7 10
20.07.2019 07:00:00 18,6 13,8 16 9 29 16 S 1009,9 10
20.07.2019 06:00:00 18,7 13,8 18 10 32 18 S 1009,9 10
20.07.2019 05:00:00 18,3 13,9 18 10 - - S 1010,5 10
20.07.2019 04:00:00 18,2 13,9 13 7 22 12 S 1011,0 10
20.07.2019 03:00:00 18,6 13,9 11 6 22 12 S 1011,2 10
20.07.2019 02:00:00 19,2 13,8 13 7 - - S 1011,6 10
20.07.2019 01:00:00 19,5 14,0 13 7 18 10 S 1012,2 10
20.07.2019 00:00:00 19,6 13,9 11 6 14 8 S 1012,6 10
19.07.2019 23:00:00 18,7 13,6 9 5 - - SSE 1012,8 10
19.07.2019 22:00:00 19,2 14,2 5 3 11 6 SSE 1013,1 10
19.07.2019 21:00:00 21,8 13,3 8 4 18 10 S 1013,1 10
19.07.2019 20:00:00 23,2 12,5 11 6 - - SSW 1013,4 10
19.07.2019 19:00:00 23,6 12,0 13 7 25 14 SW 1013,6 10
19.07.2019 18:00:00 24,0 11,8 11 6 25 14 SW 1013,9 10
19.07.2019 17:00:00 23,8 11,1 13 7 - - SSW 1014,1 10
19.07.2019 16:00:00 23,0 11,0 11 6 29 16 SW 1014,4 10
19.07.2019 15:00:00 23,3 11,9 11 6 25 14 SW 1014,9 10
19.07.2019 14:00:00 22,0 11,5 15 8 - - SW 1014,8 10
19.07.2019 13:00:00 22,4 12,3 13 7 25 14 SW 1014,7 10
19.07.2019 12:00:00 21,6 13,3 13 7 22 12 SW 1014,8 10
19.07.2019 11:00:00 19,6 13,1 11 6 - - WSW 1015,1 10
19.07.2019 10:00:00 18,9 13,6 11 6 18 10 SW 1015,0 10
19.07.2019 09:00:00 17,1 13,2 9 5 18 10 SW 1014,6 10
19.07.2019 08:00:00 16,4 12,9 13 7 - - WSW 1014,3 10
19.07.2019 07:00:00 15,9 12,6 11 6 18 10 WSW 1014,0 45
19.07.2019 06:00:00 15,3 12,3 8 4 22 12 SW 1013,8 10
19.07.2019 05:00:00 16,0 13,0 11 6 - - SW 1013,7 45
19.07.2019 04:00:00 16,6 12,6 11 6 22 12 WSW 1013,8 10
19.07.2019 03:00:00 17,3 13,2 13 7 22 12 WSW 1013,6 10
19.07.2019 02:00:00 17,9 14,0 15 8 - - WSW 1013,5 10
19.07.2019 01:00:00 18,2 14,3 11 6 18 10 WSW 1013,4 10
19.07.2019 00:00:00 17,6 14,4 8 4 14 8 SW 1013,2 10
18.07.2019 23:00:00 18,3 14,7 8 4 - - SW 1013,2 10
18.07.2019 22:00:00 18,7 14,9 8 4 22 12 SW 1013,0 10
18.07.2019 21:00:00 19,7 14,3 15 8 29 16 WSW 1012,7 10
18.07.2019 20:00:00 20,1 13,8 18 10 - - WSW 1012,6 10
18.07.2019 19:00:00 19,9 14,2 22 12 36 19 W 1012,5 10
18.07.2019 18:00:00 22,3 12,7 18 10 29 16 WSW 1011,9 15
18.07.2019 17:00:00 22,6 13,7 15 8 - - WSW 1011,9 10
18.07.2019 16:00:00 21,8 12,7 18 10 29 16 WSW 1012,3 15
18.07.2019 15:00:00 22,2 12,7 11 6 25 14 SW 1012,1 10
18.07.2019 14:00:00 21,4 11,8 14 8 - - W 1012,2 15
18.07.2019 13:00:00 21,2 12,1 18 10 29 16 WSW 1012,3 10
18.07.2019 12:00:00 20,4 12,2 15 8 25 14 WSW 1012,3 10
18.07.2019 11:00:00 19,2 11,7 16 9 - - SW 1012,1 10
18.07.2019 10:00:00 19,3 12,2 11 6 22 12 WSW 1012,1 10
18.07.2019 09:00:00 17,5 11,9 11 6 22 12 WSW 1012,2 10
18.07.2019 08:00:00 16,1 10,7 9 5 - - WSW 1012,1 10
18.07.2019 07:00:00 15,7 12,5 9 5 18 10 WSW 1011,8 10
18.07.2019 06:00:00 15,3 12,0 9 5 11 6 SW 1011,8 10
18.07.2019 05:00:00 15,0 12,1 8 4 - - S 1011,6 10
18.07.2019 04:00:00 17,0 11,6 9 5 14 8 S 1011,8 10
18.07.2019 03:00:00 16,7 11,8 9 5 18 10 SSE 1012,3 10
18.07.2019 02:00:00 18,2 11,7 11 6 - - SSE 1012,7 10
18.07.2019 01:00:00 18,2 12,1 9 5 14 8 SE 1012,7 10
18.07.2019 00:00:00 18,0 12,2 8 4 14 8 SE 1012,9 10
17.07.2019 23:00:00 17,3 13,6 8 4 - - SE 1013,2 10
17.07.2019 22:00:00 18,4 14,0 5 3 11 6 SE 1013,3 10
17.07.2019 21:00:00 21,5 12,6 8 4 11 6 SE 1013,3 10
17.07.2019 20:00:00 22,6 13,0 4 2 - - ENE 1013,5 10
17.07.2019 19:00:00 23,7 11,8 5 3 14 8 ENE 1013,8 10
17.07.2019 18:00:00 23,8 10,4 7 4 22 12 N 1014,1 40
17.07.2019 17:00:00 23,4 11,3 8 4 - - NE 1014,7 10
17.07.2019 16:00:00 23,4 11,4 4 2 14 8 - 1015,2 10
17.07.2019 15:00:00 22,6 11,2 0 0 18 10 N 1015,5 10
17.07.2019 14:00:00 22,1 10,7 8 4 - - N 1015,8 10
17.07.2019 13:00:00 21,5 12,0 2 1 14 8 - 1016,3 10
17.07.2019 12:00:00 20,5 12,5 2 1 11 6 - 1016,6 10
17.07.2019 11:00:00 19,5 12,8 0 0 - - N 1016,7 10
17.07.2019 10:00:00 18,5 13,1 2 1 7 4 - 1016,9 10
17.07.2019 09:00:00 17,1 13,1 2 1 4 2 - 1016,9 10
17.07.2019 08:00:00 14,1 12,9 0 0 - - N 1016,7 7
17.07.2019 07:00:00 10,0 9,6 2 1 4 2 S 1016,8 5
17.07.2019 06:00:00 9,2 8,7 0 0 0 0 N 1017,1 4,0
17.07.2019 05:00:00 10,4 9,7 0 0 - - N 1017,0 7
17.07.2019 04:00:00 10,4 9,7 0 0 4 2 N 1017,4 10
17.07.2019 03:00:00 11,7 10,2 4 2 4 2 NW 1017,9 10
17.07.2019 02:00:00 12,5 10,5 2 1 - - NW 1017,9 10
17.07.2019 01:00:00 12,4 10,5 2 1 4 2 - 1018,0 10
17.07.2019 00:00:00 12,3 11,2 0 0 4 2 N 1018,0 10
16.07.2019 23:00:00 15,2 11,8 2 1 - - - 1018,1 10
16.07.2019 22:00:00 15,5 11,8 4 2 11 6 - 1018,1 10
16.07.2019 21:00:00 18,4 10,9 8 4 14 8 NNW 1018,1 10
16.07.2019 20:00:00 19,6 10,8 8 4 - - NNW 1018,2 10
16.07.2019 19:00:00 19,9 10,4 9 5 14 8 NW 1018,4 10
16.07.2019 18:00:00 19,9 10,2 8 4 18 10 NNW 1018,7 10
16.07.2019 17:00:00 20,1 10,5 9 5 - - N 1019,1 10
16.07.2019 16:00:00 19,9 10,5 5 3 18 10 W 1019,4 10
16.07.2019 15:00:00 18,3 8,7 4 2 18 10 - 1019,7 10
16.07.2019 14:00:00 17,5 10,1 2 1 - - - 1020,1 10
16.07.2019 13:00:00 16,4 10,1 4 2 14 8 - 1020,4 45
16.07.2019 12:00:00 15,7 9,8 4 2 14 8 - 1020,6 10
16.07.2019 11:00:00 15,3 9,3 9 5 - - NW 1020,7 10
16.07.2019 10:00:00 14,8 9,6 9 5 11 6 NW 1020,7 10
16.07.2019 09:00:00 14,3 10,6 8 4 11 6 NW 1020,6 10
16.07.2019 08:00:00 13,5 12,3 2 1 - - SSW 1020,5 10
16.07.2019 07:00:00 12,6 11,9 4 2 7 4 S 1020,4 10
16.07.2019 06:00:00 12,3 11,4 7 4 7 4 SSW 1020,2 20
16.07.2019 05:00:00 11,7 11,2 4 2 - - S 1020,1 10
16.07.2019 04:00:00 11,7 10,7 4 2 4 2 SSW 1020,4 10
16.07.2019 03:00:00 11,2 10,3 4 2 4 2 W 1020,8 10
16.07.2019 02:00:00 10,8 10,1 0 0 - - N 1020,9 10
16.07.2019 01:00:00 12,1 10,6 4 2 7 4 N 1020,9 10
16.07.2019 00:00:00 13,8 11,5 5 3 7 4 N 1020,9 10
15.07.2019 23:00:00 15,0 11,9 5 3 - - NNW 1020,9 10
15.07.2019 22:00:00 15,4 11,6 8 4 14 8 NNW 1020,8 10
15.07.2019 21:00:00 16,0 11,3 9 5 18 10 NNW 1020,6 10
15.07.2019 20:00:00 16,7 10,8 13 7 - - N 1020,7 10
15.07.2019 19:00:00 17,0 11,1 13 7 22 12 NNW 1020,7 10

tt = Température de l'air
td = dewpoint
ff = Vitesse du vent
fx = gusts
dd = Direction du vent
ppp = reduced air pressure
vv = visibility

stations d'obs. à proximité